Starlink 33898

operational
NORAD ID: 64002 Int'l Des: 2025-101 Owner: SPXS Country: US Constellation: starlink
LEOCIRCULAR

About Starlink 33898

Description loading...

Live Position

Loading 3D Globe...

Upcoming Passes

Altitude History

Altitude vs Time

uPlot chart will show altitude changes over time

Two-Line Element Set

1 64002U 25101J 26049.61193397 .00021352 00000-0 78310-3 0 9996
2 64002 43.0010 106.0451 0001102 267.9236 92.1490 15.27584719 44134
Epoch: Feb 18, 2026 • Age: 17 hours

Current Status

Altitude 489.2 km
Velocity 7.62 km/s
Sub-Earth Point -26.62°S, 55.06°E
Launch Date May 14, 2025
Age 0.7 years
Type internet

Technical Details

Classification Payload
Mass 575.00 kg
Dry Mass 530.00 kg
Total Mass 575.00 kg
Length 0.30 m
Diameter 4.10 m
Span 29.00 m
Shape Box + pan
Manufacturer SPXS
Bus Type Starlink V2MO
Phase Status In Orbit
Owner/State SPXS/US

Large Constellations

Loading constellations...